This demonstration page uses our WeatherBlox Daily Observations layout. Learn more.

Left ArrowRight Arrow

Hourly Observations for July 19, 2020

Temp ( °F °C ) Dew Point ( °F °C ) Humidity (%) Winds ( mph kmh ) Pressure ( in mb ) Visibility ( mi km ) Precip ( " mm )
12:51 am 00:51 Clear 82 27.8 55 12.8 40 40 NE 9 15 29.75 1008 10 16.0934 0 0
1:51 am 01:51 Clear 84 28.9 56 13.3 38 38 E 14 22 29.76 1008 10 16.0934 0 0
2:51 am 02:51 Clear 83 28.3 55 12.8 38 38 E 7 11 29.75 1007 10 16.0934 0 0
3:51 am 03:51 Clear 82 27.8 54 12.2 38 38 E 7 11 29.74 1007 10 16.0934 0 0
4:51 am 04:51 Clear 80 26.7 56 13.3 44 44 ESE 9 15 29.75 1008 10 16.0934 0 0
5:51 am 05:51 Sunny 80 26.7 57 13.9 45 45 SE 8 13 29.77 1008 10 16.0934 0 0
6:51 am 06:51 Sunny 82 27.8 56 13.3 41 41 SSE 8 13 29.8 1009 10 16.0934 0 0
7:51 am 07:51 Sunny 88 31.1 56 13.3 34 34 VRB 6 9 29.79 1009 10 16.0934 0 0
8:51 am 08:51 Sunny 88 31.1 55 12.8 33 33 SSE 6 9 29.8 1009 10 16.0934 0 0
9:51 am 09:51 Sunny 89 31.7 54 12.2 30 30 W 3 6 29.8 1009 10 16.0934 0 0
10:51 am 10:51 Sunny 94 34.4 52 11.1 24 24 VRB 7 11 29.79 1009 10 16.0934 0 0
11:51 am 11:51 Sunny 96 35.6 48 8.9 19 19 WNW 12 19 29.78 1008 10 16.0934 0 0
12:51 pm 12:51 Sunny 100 37.8 47 8.3 16 16 WNW 13 20 29.75 1007 10 16.0934 0 0
1:51 pm 13:51 Sunny 101 38.3 49 9.4 17 17 WNW 18 30 29.7 1006 10 16.0934 0 0
2:51 pm 14:51 Sunny 104 40 48 8.9 15 15 WNW 20 31 29.68 1005 10 16.0934 0 0
3:51 pm 15:51 Sunny 101 38.3 46 7.8 15 15 W 16 26 29.65 1004 10 16.0934 0 0
4:51 pm 16:51 Sunny 101 38.3 44 6.7 14 14 NW 8 13 29.65 1004 10 16.0934 0 0
5:51 pm 17:51 Sunny 100 37.8 43 6.1 14 14 WNW 8 13 29.65 1004 10 16.0934 0 0
6:22 pm 18:22 Partly Cloudy 95 35 50 10 22 22 E 18 30 29.58 1002 10 16.0934 0 0
6:51 pm 18:51 Mostly Sunny 95 35 51 10.6 23 23 E 10 17 29.68 1005 10 16.0934 0 0
7:51 pm 19:51 Clear 92 33.3 50 10 24 24 E 3 6 29.69 1005 10 16.0934 0 0
8:51 pm 20:51 Clear 89 31.7 50 10 26 26 WNW 3 6 29.73 1007 10 16.0934 0 0
9:51 pm 21:51 Clear 88 31.1 50 10 27 27 NNE 3 6 29.75 1007 10 16.0934 0 0
10:51 pm 22:51 Mostly Clear 87 30.6 49 9.4 27 27 Calm 29.75 1007 10 16.0934 0 0
11:51 pm 23:51 Clear 88 31.1 48 8.9 25 25 N 6 9 29.74 1007 10 16.0934 0 0

Powered by AerisWeather